Time,TemperatureF,DewpointF,PressureIn,WindDirection,WindDirectionDegrees,WindSpeedMPH,WindSpeedGustMPH,Humidity,HourlyPrecipIn,Conditions,Clouds,dailyrainin,SolarRadiationWatts/m^2,SoftwareType,DateUTC
2013-01-31 00:00:00,49.8,49.8,29.35,SSE,157,0.0,8.0,100,0.02,,---,0.46,0.00,VWS V14.01,2013-01-31 05:00:00,
2013-01-31 00:05:00,50.3,50.3,29.35,South,185,1.0,6.0,100,0.02,,---,0.00,0.00,VWS V14.01,2013-01-31 05:05:00,
2013-01-31 00:10:00,50.9,50.9,29.35,South,186,3.0,7.0,100,0.03,,---,0.01,0.00,VWS V14.01,2013-01-31 05:10:00,
2013-01-31 00:15:00,51.5,51.5,29.34,SSE,167,0.0,7.0,100,0.04,,---,0.02,0.00,VWS V14.01,2013-01-31 05:15:00,
2013-01-31 00:20:00,51.5,51.5,29.33,SSE,155,2.0,8.0,100,0.04,,---,0.02,0.00,VWS V14.01,2013-01-31 05:20:00,
2013-01-31 00:25:00,51.5,51.5,29.33,SSE,152,1.0,8.0,100,0.04,,---,0.02,0.00,VWS V14.01,2013-01-31 05:25:00,
2013-01-31 00:30:00,51.2,51.2,29.32,SSE,157,1.0,8.0,100,0.05,,---,0.03,0.00,VWS V14.01,2013-01-31 05:30:00,
2013-01-31 00:35:00,50.9,50.9,29.32,SE,144,7.0,7.0,100,0.05,,---,0.04,0.00,VWS V14.01,2013-01-31 05:35:00,
2013-01-31 00:40:00,51.0,51.0,29.31,SE,145,4.0,9.0,100,0.05,,---,0.04,0.00,VWS V14.01,2013-01-31 05:40:00,
2013-01-31 00:45:00,51.0,51.0,29.30,SE,129,5.0,9.0,100,0.05,,---,0.04,0.00,VWS V14.01,2013-01-31 05:45:00,
2013-01-31 00:50:00,51.2,51.2,29.30,SSE,151,5.0,11.0,100,0.04,,---,0.04,0.00,VWS V14.01,2013-01-31 05:50:00,
2013-01-31 00:55:00,51.3,51.3,29.29,SSE,163,0.0,12.0,100,0.04,,---,0.04,0.00,VWS V14.01,2013-01-31 05:55:00,
2013-01-31 01:00:00,51.5,51.5,29.29,ESE,120,0.0,12.0,100,0.04,,---,0.04,0.00,VWS V14.01,2013-01-31 06:00:00,
2013-01-31 01:05:00,51.6,51.6,29.28,SSE,167,2.0,7.0,100,0.04,,---,0.04,0.00,VWS V14.01,2013-01-31 06:05:00,
2013-01-31 01:10:00,51.6,51.6,29.28,SE,126,2.0,8.0,100,0.04,,---,0.04,0.00,VWS V14.01,2013-01-31 06:10:00,
2013-01-31 01:15:00,51.8,51.8,29.26,South,171,8.0,8.0,100,0.04,,---,0.04,0.00,VWS V14.01,2013-01-31 06:15:00,
2013-01-31 01:20:00,52.1,52.1,29.26,SE,145,2.0,9.0,100,0.02,,---,0.04,0.00,VWS V14.01,2013-01-31 06:20:00,
2013-01-31 01:25:00,52.2,52.2,29.25,SE,127,5.0,10.0,100,0.03,,---,0.05,0.00,VWS V14.01,2013-01-31 06:25:00,
2013-01-31 01:30:00,52.2,52.2,29.24,SSE,154,1.0,10.0,100,0.03,,---,0.05,0.00,VWS V14.01,2013-01-31 06:30:00,
2013-01-31 01:35:00,52.2,52.2,29.24,South,173,2.0,9.0,100,0.02,,---,0.05,0.00,VWS V14.01,2013-01-31 06:35:00,
2013-01-31 01:40:00,52.4,52.4,29.24,SSE,164,1.0,18.0,100,0.02,,---,0.05,0.00,VWS V14.01,2013-01-31 06:40:00,
2013-01-31 01:45:00,52.4,52.4,29.23,SE,146,6.0,18.0,100,0.03,,---,0.06,0.00,VWS V14.01,2013-01-31 06:45:00,
2013-01-31 01:50:00,52.5,52.5,29.22,SE,131,4.0,12.0,100,0.02,,---,0.06,0.00,VWS V14.01,2013-01-31 06:50:00,
2013-01-31 01:55:00,52.5,52.5,29.22,South,184,2.0,12.0,100,0.02,,---,0.06,0.00,VWS V14.01,2013-01-31 06:55:00,
2013-01-31 02:00:00,52.7,52.7,29.21,South,180,5.0,12.0,100,0.02,,---,0.06,0.00,VWS V14.01,2013-01-31 07:00:00,
2013-01-31 02:05:00,53.0,53.0,29.21,ESE,118,13.0,13.0,100,0.03,,---,0.07,0.00,VWS V14.01,2013-01-31 07:05:00,
2013-01-31 02:10:00,53.1,53.1,29.20,SSE,150,6.0,13.0,100,0.03,,---,0.07,0.00,VWS V14.01,2013-01-31 07:10:00,
2013-01-31 02:15:00,53.2,53.2,29.20,SE,142,2.0,14.0,100,0.03,,---,0.07,0.00,VWS V14.01,2013-01-31 07:15:00,
2013-01-31 02:20:00,53.2,53.2,29.19,SSW,200,12.0,12.0,100,0.04,,---,0.08,0.00,VWS V14.01,2013-01-31 07:20:00,
2013-01-31 02:25:00,53.4,53.4,29.18,South,176,1.0,12.0,100,0.05,,---,0.09,0.00,VWS V14.01,2013-01-31 07:25:00,
2013-01-31 02:30:00,53.4,53.4,29.18,ESE,122,7.0,12.0,100,0.05,,---,0.09,0.00,VWS V14.01,2013-01-31 07:30:00,
2013-01-31 02:35:00,53.4,53.4,29.18,South,179,4.0,6.0,100,0.04,,---,0.09,0.00,VWS V14.01,2013-01-31 07:35:00,
2013-01-31 02:40:00,53.4,53.4,29.17,SSW,199,4.0,7.0,100,0.05,,---,0.10,0.00,VWS V14.01,2013-01-31 07:40:00,
2013-01-31 02:45:00,53.5,53.5,29.16,SSE,163,5.0,8.0,100,0.06,,---,0.11,0.00,VWS V14.01,2013-01-31 07:45:00,
2013-01-31 02:50:00,53.7,53.7,29.16,SSW,200,4.0,9.0,100,0.06,,---,0.12,0.00,VWS V14.01,2013-01-31 07:50:00,
2013-01-31 02:56:00,53.8,53.8,29.14,SE,143,4.0,9.0,100,0.06,,---,0.12,0.00,VWS V14.01,2013-01-31 07:56:00,
2013-01-31 03:00:00,53.8,53.8,29.14,South,171,5.0,11.0,100,0.07,,---,0.13,0.00,VWS V14.01,2013-01-31 08:00:00,
2013-01-31 03:05:00,53.8,53.8,29.13,SE,139,6.0,9.0,100,0.09,,---,0.15,0.00,VWS V14.01,2013-01-31 08:05:00,
2013-01-31 03:11:00,53.8,53.8,29.12,SE,146,9.0,15.0,100,0.09,,---,0.15,0.00,VWS V14.01,2013-01-31 08:11:00,
2013-01-31 03:16:00,54.1,54.1,29.10,SE,144,8.0,15.0,100,0.10,,---,0.16,0.00,VWS V14.01,2013-01-31 08:16:00,
2013-01-31 03:21:00,54.1,54.1,29.10,SSE,153,5.0,10.0,100,0.09,,---,0.16,0.00,VWS V14.01,2013-01-31 08:21:00,
2013-01-31 03:26:00,54.0,54.0,29.09,South,182,9.0,10.0,100,0.09,,---,0.16,0.00,VWS V14.01,2013-01-31 08:26:00,
2013-01-31 03:31:00,54.0,54.0,29.09,SSW,192,4.0,14.0,100,0.09,,---,0.16,0.00,VWS V14.01,2013-01-31 08:31:00,
2013-01-31 03:36:00,54.1,54.1,29.09,South,185,3.0,13.0,100,0.07,,---,0.16,0.00,VWS V14.01,2013-01-31 08:36:00,
2013-01-31 03:41:00,54.1,54.1,29.08,South,176,9.0,14.0,100,0.08,,---,0.17,0.00,VWS V14.01,2013-01-31 08:41:00,
2013-01-31 03:46:00,54.0,54.0,29.08,SSE,165,4.0,14.0,100,0.08,,---,0.17,0.00,VWS V14.01,2013-01-31 08:46:00,
2013-01-31 03:51:00,54.0,54.0,29.07,SW,223,7.0,11.0,100,0.06,,---,0.17,0.00,VWS V14.01,2013-01-31 08:51:00,
2013-01-31 03:56:00,54.0,54.0,29.06,SE,135,5.0,11.0,100,0.06,,---,0.17,0.00,VWS V14.01,2013-01-31 08:56:00,
2013-01-31 04:01:00,54.1,54.1,29.07,South,188,0.0,11.0,100,0.06,,---,0.17,0.00,VWS V14.01,2013-01-31 09:01:00,
2013-01-31 04:06:00,54.4,54.4,29.05,SE,138,7.0,12.0,100,0.04,,---,0.17,0.00,VWS V14.01,2013-01-31 09:06:00,
2013-01-31 04:11:00,54.4,54.4,29.04,SSW,195,4.0,12.0,100,0.05,,---,0.18,0.00,VWS V14.01,2013-01-31 09:11:00,
2013-01-31 04:16:00,54.4,54.4,29.02,SSE,149,1.0,12.0,100,0.05,,---,0.18,0.00,VWS V14.01,2013-01-31 09:16:00,
2013-01-31 04:21:00,54.6,54.6,29.01,SE,146,6.0,8.0,100,0.02,,---,0.18,0.00,VWS V14.01,2013-01-31 09:21:00,
2013-01-31 04:26:00,54.7,54.7,29.01,South,182,3.0,12.0,100,0.02,,---,0.18,0.00,VWS V14.01,2013-01-31 09:26:00,
2013-01-31 04:31:00,54.7,54.7,29.00,SW,222,5.0,12.0,100,0.02,,---,0.18,0.00,VWS V14.01,2013-01-31 09:31:00,
2013-01-31 04:36:00,54.7,54.7,29.00,SSE,164,4.0,15.0,100,0.02,,---,0.18,0.00,VWS V14.01,2013-01-31 09:36:00,
2013-01-31 04:41:00,54.9,54.9,28.99,SSE,160,5.0,15.0,100,0.02,,---,0.18,0.00,VWS V14.01,2013-01-31 09:41:00,
2013-01-31 04:46:00,55.0,55.0,28.98,SSW,206,6.0,15.0,100,0.03,,---,0.19,0.00,VWS V14.01,2013-01-31 09:46:00,
2013-01-31 04:51:00,55.0,55.0,28.98,SSE,150,7.0,8.0,100,0.02,,---,0.19,0.00,VWS V14.01,2013-01-31 09:51:00,
2013-01-31 04:56:00,55.3,55.3,28.97,SSE,159,5.0,13.0,100,0.02,,---,0.19,0.00,VWS V14.01,2013-01-31 09:56:00,
2013-01-31 05:01:00,55.5,55.5,28.96,SSW,197,4.0,13.0,100,0.02,,---,0.19,0.00,VWS V14.01,2013-01-31 10:01:00,
2013-01-31 05:06:00,55.5,55.5,28.96,SSW,198,4.0,12.0,100,0.03,,---,0.20,0.00,VWS V14.01,2013-01-31 10:06:00,
2013-01-31 05:11:00,55.8,55.8,28.95,South,171,5.0,22.0,100,0.03,,---,0.20,0.00,VWS V14.01,2013-01-31 10:11:00,
2013-01-31 05:16:00,55.8,55.8,28.94,South,169,13.0,22.0,100,0.04,,---,0.21,0.00,VWS V14.01,2013-01-31 10:16:00,
2013-01-31 05:21:00,55.8,55.8,28.93,SSE,151,9.0,10.0,100,0.03,,---,0.21,0.00,VWS V14.01,2013-01-31 10:21:00,
2013-01-31 05:26:00,55.9,55.9,28.94,SSE,161,6.0,12.0,100,0.04,,---,0.22,0.00,VWS V14.01,2013-01-31 10:26:00,
2013-01-31 05:31:00,55.9,55.9,28.93,SE,141,8.0,14.0,100,0.06,,---,0.24,0.00,VWS V14.01,2013-01-31 10:31:00,
2013-01-31 05:36:00,55.9,55.9,28.91,SE,134,9.0,13.0,100,0.07,,---,0.25,0.00,VWS V14.01,2013-01-31 10:36:00,
2013-01-31 05:41:00,56.1,56.1,28.90,SW,216,10.0,13.0,100,0.10,,---,0.28,0.00,VWS V14.01,2013-01-31 10:41:00,
2013-01-31 05:46:00,56.2,56.2,28.90,SSE,162,5.0,16.0,100,0.12,,---,0.30,0.00,VWS V14.01,2013-01-31 10:46:00,
2013-01-31 05:51:00,56.2,56.2,28.89,South,180,6.0,16.0,100,0.13,,---,0.32,0.00,VWS V14.01,2013-01-31 10:51:00,
2013-01-31 05:56:00,56.2,56.2,28.89,South,176,4.0,16.0,100,0.15,,---,0.34,0.00,VWS V14.01,2013-01-31 10:56:00,
2013-01-31 06:01:00,56.4,56.4,28.89,SSW,193,5.0,16.0,100,0.18,,---,0.37,0.00,VWS V14.01,2013-01-31 11:01:00,
2013-01-31 06:06:00,56.4,56.4,28.89,SSE,154,0.0,12.0,100,0.21,,---,0.40,0.00,VWS V14.01,2013-01-31 11:06:00,
2013-01-31 06:11:00,56.4,56.4,28.89,South,180,8.0,13.0,100,0.24,,---,0.43,0.00,VWS V14.01,2013-01-31 11:11:00,
2013-01-31 06:16:00,56.4,56.4,28.89,South,178,6.0,13.0,100,0.27,,---,0.46,0.00,VWS V14.01,2013-01-31 11:16:00,
2013-01-31 06:21:00,56.4,56.4,28.88,SSW,194,0.0,12.0,100,0.28,,---,0.49,0.00,VWS V14.01,2013-01-31 11:21:00,
2013-01-31 06:26:00,56.5,56.5,28.90,SW,225,4.0,17.0,100,0.30,,---,0.51,0.00,VWS V14.01,2013-01-31 11:26:00,
2013-01-31 06:33:00,56.4,56.4,28.92,West,271,6.0,7.0,100,0.34,,---,0.58,0.00,VWS V14.01,2013-01-31 11:33:00,
2013-01-31 06:38:00,56.1,56.1,28.90,SSW,209,4.0,7.0,100,0.36,,---,0.60,0.00,VWS V14.01,2013-01-31 11:38:00,
2013-01-31 06:43:00,55.5,55.5,28.90,WNW,283,6.0,7.0,100,0.37,,---,0.61,0.00,VWS V14.01,2013-01-31 11:43:00,
2013-01-31 06:48:00,55.2,55.2,28.91,South,190,4.0,4.0,100,0.32,,---,0.62,0.00,VWS V14.01,2013-01-31 11:48:00,
2013-01-31 06:53:00,55.2,55.2,28.92,SSW,197,3.0,7.0,100,0.33,,---,0.63,0.00,VWS V14.01,2013-01-31 11:53:00,
2013-01-31 06:58:00,55.3,55.3,28.92,SW,217,1.0,8.0,100,0.34,,---,0.64,0.00,VWS V14.01,2013-01-31 11:58:00,
2013-01-31 07:03:00,55.5,55.5,28.92,SW,219,3.0,9.0,100,0.28,,---,0.65,0.00,VWS V14.01,2013-01-31 12:03:00,
2013-01-31 07:08:00,55.5,55.5,28.91,SW,236,3.0,9.0,100,0.28,,---,0.65,0.00,VWS V14.01,2013-01-31 12:08:00,
2013-01-31 07:13:00,55.5,55.5,28.90,SSW,207,0.0,9.0,100,0.29,,---,0.66,0.00,VWS V14.01,2013-01-31 12:13:00,
2013-01-31 07:18:00,55.3,55.3,28.89,SW,218,2.0,7.0,100,0.26,,---,0.72,0.00,VWS V14.01,2013-01-31 12:18:00,
2013-01-31 07:23:00,55.2,55.2,28.88,SSW,203,0.0,7.0,100,0.26,,---,0.72,0.00,VWS V14.01,2013-01-31 12:23:00,
2013-01-31 07:28:00,54.9,54.9,28.87,SSE,167,4.0,7.0,100,0.26,,---,0.72,0.00,VWS V14.01,2013-01-31 12:28:00,
2013-01-31 07:33:00,54.7,54.7,28.86,South,171,0.0,10.0,100,0.17,,---,0.72,0.00,VWS V14.01,2013-01-31 12:33:00,
2013-01-31 07:38:00,54.6,54.6,28.87,SE,145,2.0,10.0,100,0.17,,---,0.72,0.00,VWS V14.01,2013-01-31 12:38:00,
2013-01-31 07:43:00,54.4,54.4,28.86,SSE,148,2.0,10.0,100,0.17,,---,0.72,0.00,VWS V14.01,2013-01-31 12:43:00,
2013-01-31 07:48:00,54.1,54.1,28.87,SSE,157,0.0,1.0,100,0.10,,---,0.72,5.00,VWS V14.01,2013-01-31 12:48:00,
2013-01-31 07:53:00,54.1,54.1,28.84,SSE,154,5.0,6.0,100,0.10,,---,0.72,7.00,VWS V14.01,2013-01-31 12:53:00,
2013-01-31 07:58:00,54.1,54.1,28.85,SSE,149,1.0,7.0,100,0.10,,---,0.72,11.00,VWS V14.01,2013-01-31 12:58:00,
2013-01-31 08:03:00,54.0,54.0,28.84,ESE,123,9.0,9.0,100,0.08,,---,0.72,12.00,VWS V14.01,2013-01-31 13:03:00,
2013-01-31 08:08:00,54.0,54.0,28.83,SSE,155,4.0,9.0,100,0.08,,---,0.72,12.00,VWS V14.01,2013-01-31 13:08:00,
2013-01-31 08:13:00,53.8,53.8,28.83,SSE,150,4.0,9.0,100,0.08,,---,0.72,28.00,VWS V14.01,2013-01-31 13:13:00,
2013-01-31 08:18:00,53.7,53.7,28.83,SSE,156,6.0,7.0,100,0.00,,---,0.72,26.00,VWS V14.01,2013-01-31 13:18:00,
2013-01-31 08:23:00,53.7,53.7,28.84,SW,221,0.0,7.0,100,0.00,,---,0.72,44.00,VWS V14.01,2013-01-31 13:23:00,
2013-01-31 08:28:00,53.5,53.5,28.84,South,180,3.0,7.0,100,0.01,,---,0.73,47.00,VWS V14.01,2013-01-31 13:28:00,
2013-01-31 08:33:00,53.5,53.5,28.83,South,188,4.0,5.0,100,0.01,,---,0.73,26.00,VWS V14.01,2013-01-31 13:33:00,
2013-01-31 08:38:00,53.5,53.5,28.83,SSW,195,4.0,7.0,100,0.01,,---,0.73,35.00,VWS V14.01,2013-01-31 13:38:00,
2013-01-31 08:43:00,53.4,53.4,28.82,SSE,159,5.0,7.0,100,0.01,,---,0.73,47.00,VWS V14.01,2013-01-31 13:43:00,
2013-01-31 08:48:00,53.4,53.4,28.83,South,173,1.0,5.0,100,0.01,,---,0.73,30.00,VWS V14.01,2013-01-31 13:48:00,
2013-01-31 08:53:00,53.4,53.4,28.82,SSE,159,4.0,6.0,100,0.01,,---,0.73,14.00,VWS V14.01,2013-01-31 13:53:00,
2013-01-31 08:58:00,53.4,53.4,28.80,SSE,150,0.0,7.0,100,0.01,,---,0.73,37.00,VWS V14.01,2013-01-31 13:58:00,
2013-01-31 09:03:00,53.2,53.2,28.83,WNW,298,11.0,12.0,100,0.02,,---,0.74,11.00,VWS V14.01,2013-01-31 14:03:00,
2013-01-31 09:08:00,51.6,51.3,28.87,West,277,13.0,21.0,99,0.02,,---,0.74,42.00,VWS V14.01,2013-01-31 14:08:00,
2013-01-31 09:13:00,49.8,49.0,28.88,West,277,9.0,21.0,97,0.02,,---,0.74,67.00,VWS V14.01,2013-01-31 14:13:00,
2013-01-31 09:18:00,48.2,47.4,28.89,West,277,7.0,12.0,97,0.02,,---,0.74,60.00,VWS V14.01,2013-01-31 14:18:00,
2013-01-31 09:23:00,47.2,46.4,28.90,WNW,290,12.0,13.0,97,0.02,,---,0.74,37.00,VWS V14.01,2013-01-31 14:23:00,
2013-01-31 09:28:00,45.9,44.8,28.91,West,268,10.0,15.0,96,0.02,,---,0.74,30.00,VWS V14.01,2013-01-31 14:28:00,
2013-01-31 09:33:00,44.7,43.6,28.91,WNW,300,6.0,10.0,96,0.01,,---,0.74,39.00,VWS V14.01,2013-01-31 14:33:00,
2013-01-31 09:38:00,44.0,42.9,28.92,West,269,7.0,15.0,96,0.01,,---,0.74,39.00,VWS V14.01,2013-01-31 14:38:00,
2013-01-31 09:43:00,43.4,42.3,28.93,WNW,288,6.0,15.0,96,0.01,,---,0.74,46.00,VWS V14.01,2013-01-31 14:43:00,
2013-01-31 09:48:00,43.0,41.9,28.95,West,281,8.0,8.0,96,0.01,,---,0.74,53.00,VWS V14.01,2013-01-31 14:48:00,
2013-01-31 09:54:00,42.5,41.4,28.95,West,277,9.0,13.0,96,0.01,,---,0.74,32.00,VWS V14.01,2013-01-31 14:54:00,
2013-01-31 09:59:00,42.1,41.0,28.95,West,276,6.0,13.0,96,0.02,,---,0.75,49.00,VWS V14.01,2013-01-31 14:59:00,
2013-01-31 10:04:00,41.8,40.8,28.94,WNW,302,5.0,5.0,96,0.02,,---,0.76,44.00,VWS V14.01,2013-01-31 15:04:00,
2013-01-31 10:09:00,41.7,40.7,28.95,WNW,296,2.0,9.0,96,0.02,,---,0.76,28.00,VWS V14.01,2013-01-31 15:09:00,
2013-01-31 10:14:00,41.2,40.2,28.94,West,279,4.0,9.0,96,0.02,,---,0.76,28.00,VWS V14.01,2013-01-31 15:14:00,
2013-01-31 10:19:00,41.1,40.0,28.94,West,274,4.0,8.0,96,0.02,,---,0.76,90.00,VWS V14.01,2013-01-31 15:19:00,
2013-01-31 10:24:00,41.0,40.0,28.94,West,279,3.0,8.0,96,0.02,,---,0.76,118.00,VWS V14.01,2013-01-31 15:24:00,
2013-01-31 10:29:00,41.0,39.7,28.94,WNW,284,7.0,9.0,95,0.02,,---,0.76,167.00,VWS V14.01,2013-01-31 15:29:00,
2013-01-31 10:34:00,41.0,39.1,28.95,West,273,6.0,7.0,93,0.02,,---,0.76,109.00,VWS V14.01,2013-01-31 15:34:00,
2013-01-31 10:39:00,41.0,38.9,28.95,WNW,289,5.0,9.0,92,0.02,,---,0.76,127.00,VWS V14.01,2013-01-31 15:39:00,
2013-01-31 10:44:00,41.0,38.6,28.95,WNW,284,4.0,9.0,91,0.02,,---,0.76,158.00,VWS V14.01,2013-01-31 15:44:00,
2013-01-31 10:49:00,41.0,38.3,28.96,West,278,7.0,8.0,90,0.02,,---,0.76,144.00,VWS V14.01,2013-01-31 15:49:00,
2013-01-31 10:54:00,42.2,38.6,28.97,West,268,8.0,9.0,87,0.02,,---,0.76,504.00,VWS V14.01,2013-01-31 15:54:00,
2013-01-31 10:59:00,42.5,37.7,28.98,West,275,8.0,10.0,83,0.02,,---,0.76,130.00,VWS V14.01,2013-01-31 15:59:00,
2013-01-31 11:04:00,41.8,37.0,28.99,WNW,297,8.0,14.0,83,0.01,,---,0.76,81.00,VWS V14.01,2013-01-31 16:04:00,
2013-01-31 11:09:00,41.2,36.4,28.99,WNW,293,10.0,14.0,83,0.01,,---,0.76,239.00,VWS V14.01,2013-01-31 16:09:00,
2013-01-31 11:14:00,41.0,35.6,28.99,West,280,5.0,14.0,81,0.01,,---,0.76,186.00,VWS V14.01,2013-01-31 16:14:00,
2013-01-31 11:19:00,40.8,35.4,28.99,WNW,284,6.0,13.0,81,0.00,,---,0.76,105.00,VWS V14.01,2013-01-31 16:19:00,
2013-01-31 11:24:00,40.7,35.0,28.99,WNW,293,4.0,13.0,80,0.00,,---,0.76,102.00,VWS V14.01,2013-01-31 16:24:00,
2013-01-31 11:29:00,41.0,33.7,29.00,West,269,10.0,15.0,75,0.00,,---,0.76,104.00,VWS V14.01,2013-01-31 16:29:00,
2013-01-31 11:34:00,41.1,33.5,29.00,West,270,8.0,12.0,74,0.00,,---,0.76,696.00,VWS V14.01,2013-01-31 16:34:00,
2013-01-31 11:39:00,43.1,34.7,29.01,West,271,7.0,12.0,72,0.00,,---,0.76,754.00,VWS V14.01,2013-01-31 16:39:00,
2013-01-31 11:44:00,43.4,33.6,29.02,WNW,286,5.0,12.0,68,0.00,,---,0.76,751.00,VWS V14.01,2013-01-31 16:44:00,
2013-01-31 11:49:00,43.4,32.0,29.02,West,275,9.0,15.0,64,0.00,,---,0.76,244.00,VWS V14.01,2013-01-31 16:49:00,
2013-01-31 11:54:00,42.7,32.5,29.03,NW,323,9.0,15.0,67,0.00,,---,0.76,726.00,VWS V14.01,2013-01-31 16:54:00,
2013-01-31 11:59:00,41.4,29.4,29.03,WSW,257,9.0,15.0,62,0.00,,---,0.76,98.00,VWS V14.01,2013-01-31 16:59:00,
2013-01-31 12:04:00,40.5,27.3,29.03,West,272,13.0,16.0,59,0.00,,---,0.76,244.00,VWS V14.01,2013-01-31 17:04:00,
2013-01-31 12:09:00,40.2,25.8,29.04,West,272,8.0,17.0,56,0.00,,---,0.76,146.00,VWS V14.01,2013-01-31 17:09:00,
2013-01-31 12:14:00,41.0,27.4,29.04,WSW,248,8.0,17.0,58,0.00,,---,0.76,599.00,VWS V14.01,2013-01-31 17:14:00,
2013-01-31 12:19:00,41.2,27.6,29.04,West,272,11.0,16.0,58,0.00,,---,0.76,598.00,VWS V14.01,2013-01-31 17:19:00,
2013-01-31 12:24:00,40.7,27.1,29.04,West,276,5.0,16.0,58,0.00,,---,0.76,519.00,VWS V14.01,2013-01-31 17:24:00,
2013-01-31 12:29:00,41.0,27.8,29.05,West,274,10.0,16.0,59,0.00,,---,0.76,557.00,VWS V14.01,2013-01-31 17:29:00,
2013-01-31 12:34:00,41.0,27.0,29.05,WSW,258,10.0,18.0,57,0.00,,---,0.76,541.00,VWS V14.01,2013-01-31 17:34:00,
2013-01-31 12:39:00,40.8,25.9,29.05,WNW,300,10.0,18.0,55,0.00,,---,0.76,534.00,VWS V14.01,2013-01-31 17:39:00,
2013-01-31 12:44:00,41.1,27.0,29.05,WNW,288,6.0,18.0,57,0.00,,---,0.76,540.00,VWS V14.01,2013-01-31 17:44:00,
2013-01-31 12:49:00,41.5,27.4,29.06,West,281,8.0,11.0,57,0.00,,---,0.76,541.00,VWS V14.01,2013-01-31 17:49:00,
2013-01-31 12:54:00,41.4,27.3,29.06,WSW,254,6.0,11.0,57,0.00,,---,0.76,557.00,VWS V14.01,2013-01-31 17:54:00,
2013-01-31 12:59:00,40.5,24.7,29.06,West,263,5.0,11.0,53,0.00,,---,0.76,527.00,VWS V14.01,2013-01-31 17:59:00,
2013-01-31 13:04:00,40.7,25.4,29.06,WNW,300,18.0,18.0,54,0.00,,---,0.76,517.00,VWS V14.01,2013-01-31 18:04:00,
2013-01-31 13:09:00,40.7,24.9,29.07,West,267,11.0,18.0,53,0.00,,---,0.76,533.00,VWS V14.01,2013-01-31 18:09:00,
2013-01-31 13:14:00,40.7,25.8,29.07,West,275,11.0,18.0,55,0.00,,---,0.76,524.00,VWS V14.01,2013-01-31 18:14:00,
2013-01-31 13:19:00,40.7,24.5,29.08,West,259,7.0,10.0,52,0.00,,---,0.76,520.00,VWS V14.01,2013-01-31 18:19:00,
2013-01-31 13:24:00,40.7,24.5,29.09,West,275,11.0,12.0,52,0.00,,---,0.76,585.00,VWS V14.01,2013-01-31 18:24:00,
2013-01-31 13:29:00,40.2,24.5,29.09,West,275,6.0,13.0,53,0.00,,---,0.76,519.00,VWS V14.01,2013-01-31 18:29:00,
2013-01-31 13:34:00,40.1,23.0,29.09,West,276,8.0,9.0,50,0.00,,---,0.76,153.00,VWS V14.01,2013-01-31 18:34:00,
2013-01-31 13:39:00,40.1,23.4,29.09,West,273,13.0,16.0,51,0.00,,---,0.76,548.00,VWS V14.01,2013-01-31 18:39:00,
2013-01-31 13:44:00,39.8,23.6,29.10,WNW,286,7.0,18.0,52,0.00,,---,0.76,526.00,VWS V14.01,2013-01-31 18:44:00,
2013-01-31 13:49:00,39.1,23.0,29.10,West,259,7.0,10.0,52,0.00,,---,0.76,473.00,VWS V14.01,2013-01-31 18:49:00,
2013-01-31 13:54:00,38.7,22.1,29.11,WNW,299,12.0,20.0,51,0.00,,---,0.76,469.00,VWS V14.01,2013-01-31 18:54:00,
2013-01-31 13:59:00,38.2,22.6,29.11,West,271,8.0,20.0,53,0.00,,---,0.76,459.00,VWS V14.01,2013-01-31 18:59:00,
2013-01-31 14:04:00,37.9,22.3,29.12,West,269,6.0,8.0,53,0.00,,---,0.76,130.00,VWS V14.01,2013-01-31 19:04:00,
2013-01-31 14:09:00,37.7,22.1,29.12,WNW,298,7.0,10.0,53,0.00,,---,0.76,478.00,VWS V14.01,2013-01-31 19:09:00,
2013-01-31 14:14:00,37.7,20.3,29.13,West,263,9.0,15.0,49,0.00,,---,0.76,476.00,VWS V14.01,2013-01-31 19:14:00,
2013-01-31 14:19:00,37.5,20.1,29.14,NW,311,4.0,10.0,49,0.00,,---,0.76,374.00,VWS V14.01,2013-01-31 19:19:00,
2013-01-31 14:24:00,37.2,20.3,29.14,WNW,283,11.0,12.0,50,0.00,,---,0.76,105.00,VWS V14.01,2013-01-31 19:24:00,
2013-01-31 14:29:00,36.7,20.8,29.15,West,276,10.0,13.0,52,0.00,,---,0.76,90.00,VWS V14.01,2013-01-31 19:29:00,
2013-01-31 14:34:00,35.9,19.5,29.14,WNW,284,7.0,14.0,51,0.00,,---,0.76,49.00,VWS V14.01,2013-01-31 19:34:00,
2013-01-31 14:39:00,35.8,19.9,29.15,WSW,249,9.0,14.0,52,0.00,,---,0.76,109.00,VWS V14.01,2013-01-31 19:39:00,
2013-01-31 14:44:00,36.1,18.8,29.16,West,265,8.0,14.0,49,0.00,,---,0.76,118.00,VWS V14.01,2013-01-31 19:44:00,
2013-01-31 14:49:00,36.2,18.4,29.16,SW,235,7.0,15.0,48,0.00,,---,0.76,253.00,VWS V14.01,2013-01-31 19:49:00,
2013-01-31 14:54:00,35.9,19.1,29.16,WSW,241,10.0,15.0,50,0.00,,---,0.76,176.00,VWS V14.01,2013-01-31 19:54:00,
2013-01-31 14:59:00,35.8,18.0,29.16,WSW,258,8.0,16.0,48,0.00,,---,0.76,49.00,VWS V14.01,2013-01-31 19:59:00,
2013-01-31 15:04:00,35.4,18.1,29.17,WNW,284,5.0,18.0,49,0.00,,---,0.76,35.00,VWS V14.01,2013-01-31 20:04:00,
2013-01-31 15:09:00,34.9,19.1,29.17,West,267,7.0,18.0,52,0.00,,---,0.76,49.00,VWS V14.01,2013-01-31 20:09:00,
2013-01-31 15:14:00,34.6,18.8,29.18,West,262,5.0,18.0,52,0.00,,---,0.76,62.00,VWS V14.01,2013-01-31 20:14:00,
2013-01-31 15:19:00,34.5,18.2,29.18,West,265,10.0,14.0,51,0.00,,---,0.76,39.00,VWS V14.01,2013-01-31 20:19:00,
2013-01-31 15:24:00,34.3,18.5,29.19,West,268,7.0,14.0,52,0.00,,---,0.76,42.00,VWS V14.01,2013-01-31 20:24:00,
2013-01-31 15:29:00,34.2,19.3,29.19,West,271,6.0,14.0,54,0.00,,---,0.76,46.00,VWS V14.01,2013-01-31 20:29:00,
2013-01-31 15:34:00,34.0,19.5,29.19,West,265,8.0,9.0,55,0.00,,---,0.76,33.00,VWS V14.01,2013-01-31 20:34:00,
2013-01-31 15:39:00,34.0,18.7,29.20,West,261,10.0,10.0,53,0.00,,---,0.76,26.00,VWS V14.01,2013-01-31 20:39:00,
2013-01-31 15:44:00,34.0,20.0,29.20,West,267,6.0,10.0,56,0.00,,---,0.76,69.00,VWS V14.01,2013-01-31 20:44:00,
2013-01-31 15:49:00,34.3,18.5,29.21,West,275,11.0,11.0,52,0.00,,---,0.76,74.00,VWS V14.01,2013-01-31 20:49:00,
2013-01-31 15:54:00,34.2,16.1,29.22,WSW,247,9.0,15.0,47,0.00,,---,0.76,63.00,VWS V14.01,2013-01-31 20:54:00,
2013-01-31 15:59:00,33.9,16.3,29.22,WNW,284,9.0,15.0,48,0.00,,---,0.76,25.00,VWS V14.01,2013-01-31 20:59:00,
2013-01-31 16:04:00,33.4,16.3,29.22,West,262,7.0,9.0,49,0.00,,---,0.76,26.00,VWS V14.01,2013-01-31 21:04:00,
2013-01-31 16:09:00,33.1,17.0,29.22,WNW,284,11.0,11.0,51,0.00,,---,0.76,28.00,VWS V14.01,2013-01-31 21:09:00,
2013-01-31 16:14:00,33.0,16.9,29.23,West,274,8.0,11.0,51,0.00,,---,0.76,23.00,VWS V14.01,2013-01-31 21:14:00,
2013-01-31 16:19:00,32.8,16.2,29.23,WSW,249,4.0,12.0,50,0.00,,---,0.76,21.00,VWS V14.01,2013-01-31 21:19:00,
2013-01-31 16:24:00,32.8,16.2,29.23,West,263,4.0,12.0,50,0.00,,---,0.76,18.00,VWS V14.01,2013-01-31 21:24:00,
2013-01-31 16:29:00,32.8,15.3,29.23,WSW,254,7.0,16.0,48,0.00,,---,0.76,14.00,VWS V14.01,2013-01-31 21:29:00,
2013-01-31 16:34:00,32.7,17.0,29.24,West,267,5.0,10.0,52,0.00,,---,0.76,11.00,VWS V14.01,2013-01-31 21:34:00,
2013-01-31 16:39:00,32.6,16.5,29.25,West,264,11.0,12.0,51,0.00,,---,0.76,9.00,VWS V14.01,2013-01-31 21:39:00,
2013-01-31 16:44:00,32.6,16.0,29.24,WSW,250,6.0,12.0,50,0.00,,---,0.76,5.00,VWS V14.01,2013-01-31 21:44:00,
2013-01-31 16:49:00,32.4,15.4,29.25,West,267,7.0,14.0,49,0.00,,---,0.76,0.00,VWS V14.01,2013-01-31 21:49:00,
2013-01-31 16:55:00,32.4,15.4,29.25,West,268,5.0,14.0,49,0.00,,---,0.76,0.00,VWS V14.01,2013-01-31 21:55:00,
2013-01-31 17:00:00,32.3,15.3,29.25,WNW,285,6.0,14.0,49,0.00,,---,0.76,0.00,VWS V14.01,2013-01-31 22:00:00,
2013-01-31 17:05:00,32.1,15.1,29.25,West,265,6.0,13.0,49,0.00,,---,0.76,0.00,VWS V14.01,2013-01-31 22:05:00,
2013-01-31 17:10:00,32.0,15.0,29.25,West,274,9.0,13.0,49,0.00,,---,0.76,0.00,VWS V14.01,2013-01-31 22:10:00,
2013-01-31 17:15:00,32.0,15.0,29.26,West,267,6.0,14.0,49,0.00,,---,0.76,0.00,VWS V14.01,2013-01-31 22:15:00,
2013-01-31 17:20:00,31.8,14.4,29.26,West,259,6.0,9.0,48,0.00,,---,0.76,0.00,VWS V14.01,2013-01-31 22:20:00,
2013-01-31 17:25:00,31.7,14.3,29.26,NW,318,5.0,11.0,48,0.00,,---,0.76,0.00,VWS V14.01,2013-01-31 22:25:00,
2013-01-31 17:30:00,31.7,13.3,29.27,West,276,12.0,13.0,46,0.00,,---,0.76,0.00,VWS V14.01,2013-01-31 22:30:00,
2013-01-31 17:35:00,31.7,14.3,29.27,West,277,8.0,9.0,48,0.00,,---,0.76,0.00,VWS V14.01,2013-01-31 22:35:00,
2013-01-31 17:40:00,31.5,14.6,29.27,West,274,7.0,9.0,49,0.00,,---,0.76,0.00,VWS V14.01,2013-01-31 22:40:00,
2013-01-31 17:45:00,31.4,13.0,29.27,West,279,8.0,16.0,46,0.00,,---,0.76,0.00,VWS V14.01,2013-01-31 22:45:00,
2013-01-31 17:50:00,31.4,13.5,29.28,West,263,7.0,14.0,47,0.00,,---,0.76,0.00,VWS V14.01,2013-01-31 22:50:00,
2013-01-31 17:55:00,31.2,13.8,29.28,SW,215,9.0,14.0,48,0.00,,---,0.76,0.00,VWS V14.01,2013-01-31 22:55:00,
2013-01-31 18:00:00,31.1,12.8,29.29,WNW,295,10.0,15.0,46,0.00,,---,0.76,0.00,VWS V14.01,2013-01-31 23:00:00,
2013-01-31 18:05:00,31.1,12.8,29.29,WNW,283,6.0,14.0,46,0.00,,---,0.76,0.00,VWS V14.01,2013-01-31 23:05:00,
2013-01-31 18:10:00,30.9,12.1,29.30,WNW,297,10.0,15.0,45,0.00,,---,0.76,0.00,VWS V14.01,2013-01-31 23:10:00,
2013-01-31 18:15:00,30.8,12.5,29.30,WNW,287,9.0,15.0,46,0.00,,---,0.76,0.00,VWS V14.01,2013-01-31 23:15:00,
2013-01-31 18:20:00,30.5,13.2,29.31,WNW,284,7.0,10.0,48,0.00,,---,0.76,0.00,VWS V14.01,2013-01-31 23:20:00,
2013-01-31 21:45:00,27.5,9.0,29.41,West,270,6.0,14.0,45,0.00,,---,0.76,0.00,VWS V14.01,2013-02-01 02:45:00,
2013-01-31 22:08:00,27.1,9.1,29.42,West,272,9.0,9.0,46,0.00,,---,0.76,0.00,VWS V14.01,2013-02-01 03:08:00,
2013-01-31 22:13:00,27.2,9.2,29.41,West,280,16.0,16.0,46,0.00,,---,0.76,0.00,VWS V14.01,2013-02-01 03:13:00,
2013-01-31 22:18:00,27.2,8.7,29.42,West,276,5.0,12.0,45,0.00,,---,0.76,0.00,VWS V14.01,2013-02-01 03:18:00,
2013-01-31 22:23:00,27.1,8.6,29.42,West,264,6.0,12.0,45,0.00,,---,0.76,0.00,VWS V14.01,2013-02-01 03:23:00,
2013-01-31 22:28:00,27.1,9.1,29.42,West,272,8.0,16.0,46,0.00,,---,0.76,0.00,VWS V14.01,2013-02-01 03:28:00,
2013-01-31 22:33:00,27.1,9.6,29.42,West,269,8.0,8.0,47,0.00,,---,0.76,0.00,VWS V14.01,2013-02-01 03:33:00,
2013-01-31 22:38:00,26.9,8.4,29.42,West,266,4.0,9.0,45,0.00,,---,0.76,0.00,VWS V14.01,2013-02-01 03:38:00,
2013-01-31 22:43:00,26.9,8.4,29.42,West,277,6.0,9.0,45,0.00,,---,0.76,0.00,VWS V14.01,2013-02-01 03:43:00,
2013-01-31 22:48:00,26.8,8.3,29.42,West,276,12.0,12.0,45,0.00,,---,0.76,0.00,VWS V14.01,2013-02-01 03:48:00,
2013-01-31 22:53:00,26.9,8.4,29.42,West,265,8.0,12.0,45,0.00,,---,0.76,0.00,VWS V14.01,2013-02-01 03:53:00,
2013-01-31 22:58:00,26.8,8.3,29.42,West,264,9.0,12.0,45,0.00,,---,0.76,0.00,VWS V14.01,2013-02-01 03:58:00,
2013-01-31 23:03:00,26.8,8.3,29.43,West,273,8.0,8.0,45,0.00,,---,0.76,0.00,VWS V14.01,2013-02-01 04:03:00,
2013-01-31 23:08:00,26.6,8.1,29.43,WNW,286,9.0,10.0,45,0.00,,---,0.76,0.00,VWS V14.01,2013-02-01 04:08:00,
2013-01-31 23:13:00,26.6,8.1,29.43,WNW,298,5.0,11.0,45,0.00,,---,0.76,0.00,VWS V14.01,2013-02-01 04:13:00,
2013-01-31 23:18:00,26.6,7.1,29.43,West,270,9.0,9.0,43,0.00,,---,0.76,0.00,VWS V14.01,2013-02-01 04:18:00,
2013-01-31 23:23:00,26.6,8.1,29.43,West,275,7.0,9.0,45,0.00,,---,0.76,0.00,VWS V14.01,2013-02-01 04:23:00,
2013-01-31 23:28:00,26.5,8.0,29.43,WSW,243,5.0,10.0,45,0.00,,---,0.76,0.00,VWS V14.01,2013-02-01 04:28:00,
2013-01-31 23:33:00,26.5,8.0,29.44,WNW,290,8.0,8.0,45,0.00,,---,0.76,0.00,VWS V14.01,2013-02-01 04:33:00,
2013-01-31 23:38:00,26.5,8.5,29.44,West,271,6.0,8.0,46,0.00,,---,0.76,0.00,VWS V14.01,2013-02-01 04:38:00,
2013-01-31 23:43:00,26.5,8.0,29.44,West,270,5.0,9.0,45,0.00,,---,0.76,0.00,VWS V14.01,2013-02-01 04:43:00,
2013-01-31 23:48:00,26.5,8.0,29.44,West,262,7.0,8.0,45,0.00,,---,0.76,0.00,VWS V14.01,2013-02-01 04:48:00,
2013-01-31 23:53:00,26.5,8.0,29.44,West,267,4.0,8.0,45,0.00,,---,0.76,0.00,VWS V14.01,2013-02-01 04:53:00,
2013-01-31 23:58:00,26.3,7.9,29.45,West,271,6.0,11.0,45,0.00,,---,0.76,0.00,VWS V14.01,2013-02-01 04:58:00,